Orbital Elements at Epoch 2459000.5 (2020-May-31.0) TDB
Reference: JPL 26 (heliocentric ecliptic J2000)
Element | Value | Uncertainty (1-sigma) | Units |
e | .1759015341036504 | 4.4647e-08 | |
a | 2.240130794792881 | 9.168e-09 | au |
q | 1.846088351395984 | 1.0433e-07 | au |
i | .7270161897700559 | 2.866e-06 | deg |
node | 222.6826287346217 | 0.00029875 | deg |
peri | 122.845324172329 | 0.00029892 | deg |
M | 237.4108130741063 | 1.288e-05 | deg |
tp | 2459417.521220607412 (2021-Jul-22.02122061) | 4.5667e-05 | TDB |
period | 1224.640143093712 3.35 | 7.518e-06 2.058e-08 | d yr |
n | .2939639060749391 | 1.8046e-09 | deg/d |
Q | 2.634173238189778 | 1.0781e-08 | au |
|
| | Orbit Determination Parameters
Additional Information
|